Regional Weather Roundup
Issued by NWS

Home | Current Version | Previous Version | Text Only | Print | Product List | Glossary Off
Versions: 1 2 3 4 5 6 7 8 9 10 11 12 13 14 15 16 17 18 19 20 21 22 23 24 25 26 27 28 29 30 31 32 33 34 35 36 37 38 39 40 41 42 43 44 45 46 47 48 49 50

000
ASUS43 KLOT 231606
RWRIL

ILLINOIS REGIONAL WEATHER ROUNDUP
NATIONAL WEATHER SERVICE CHICAGO/ROMEOVILLE IL
1100 AM CDT WED APR 23 2014

NOTE: "FAIR" INDICATES FEW OR NO CLOUDS BELOW 12,000 FEET WITH NO
SIGNIFICANT WEATHER AND/OR OBSTRUCTIONS TO VISIBILITY.

* THESE STATIONS ARE NOT UNDER NWS QUALITY CONTROL. THEY ALSO MAY NOT
  REPORT WEATHER SUCH AS PRECIPITATION OR FOG.

ILZ001-002-007-009-015-016-024-231700-
NORTHWEST ILLINOIS

CITY           SKY/WX    TMP DP  RH WIND       PRES   REMARKS
MOLINE         CLOUDY    48  29  47 E13       30.16F
STERLING*      MOSUNNY   48  30  49 SE8       30.18S
SAVANNA*       PTSUNNY   49  29  45 SE3       30.18F
$$

ILZ003-004-008-010-011-017-018-231700-
NORTH CENTRAL ILLINOIS

CITY           SKY/WX    TMP DP  RH WIND       PRES   REMARKS
ROCKFORD       MOSUNNY   49  26  41 E7        30.20S
FREEPORT*      SUNNY     46  26  46 E7        30.19S
ROCHELLE*      SUNNY     48  27  44 E5        30.17F
DE KALB*       SUNNY     46  27  48 E12       30.17F
PERU*          SUNNY     48  33  55 CALM      30.18S
$$

ILZ005-006-012>014-019>023-231700-
NORTHEAST ILLINOIS

CITY           SKY/WX    TMP DP  RH WIND       PRES   REMARKS
CHICAGO-OHARE  MOSUNNY   44  24  45 NE9       30.18R
CHICAGO-MIDWAY MOSUNNY   44  28  53 NE8       30.18S
AURORA         SUNNY     49  27  42 NE8       30.17F
LANSING*       SUNNY     44  28  54 E9        30.18S
JOLIET*        SUNNY     46  29  50 E5        30.18S
WAUKEGAN       SUNNY     42  25  50 NE12      30.18S
DUPAGE AIRPORT SUNNY     47  27  45 NE9       30.17S
KANKAKEE*      SUNNY     47  32  56 NE13      30.17S
WHEELING       SUNNY     44  27  51 VRB7      30.20S
MORRIS*        SUNNY     48  24  38 E9        30.17S
ROMEOVILLE*    SUNNY     46  28  48 E8        30.17S
NORTHERLY ISL    N/A     41  31  68 NE9         N/A
$$

LMZ740>746-231700-
SOUTHERN LAKE MICHIGAN

STATION/POSITION SKY/WX   TEMP    WIND        PRES    VSBY  WAVE
                          AIR SEA DIR/SP/G                  HT/PER
                          (F)     (DEG/KT/KT) (MB)    (MI)  (FT/S)
WAUKEGAN HARBOR            37      50/  8/ 10 1023.7R
HARRISON CRIB              36      10/ 10/ 12   N/A
BURNHAM HARBOR             42      10/  9/ 12   N/A
CALUMET HARBOR             39      10/ 11/ 15 1022.9S
MICHIGAN CITY              38     360/ 10/ 13   N/A
$$

ILZ025>027-034>036-040-047-049-050-058-095>099-231700-
WEST-CENTRAL ILLINOIS

CITY           SKY/WX    TMP DP  RH WIND       PRES   REMARKS
QUINCY         PTSUNNY   53  32  44 SE15      30.11F
GALESBURG*     MOSUNNY   52  32  46 E8        30.15S
MACOMB*        PTSUNNY   50  31  47 SE13      30.17F
JACKSONVILLE*  SUNNY     55  32  41 E9G16     30.16R
PITTSFIELD*    MOSUNNY   57  31  37 E13       30.13F
$$

ILZ028>032-037-038-041>044-048-051>054-059>061-231700-
CENTRAL ILLINOIS

CITY           SKY/WX    TMP DP  RH WIND       PRES   REMARKS
PONTIAC        SUNNY     48  30  49 E9        30.17F
BLOOMINGTON    SUNNY     49  29  46 NE10      30.17F
DECATUR        SUNNY     52  32  46 E9        30.16F
PEORIA         PTSUNNY   50  31  48 E6        30.16F
LACON*         SUNNY     47  31  54 E9        30.16F
LINCOLN*       SUNNY     53  31  42 E8        30.16F
SPRINGFIELD    SUNNY     54  31  41 E9G20     30.16F
TAYLORVILLE    SUNNY     52  32  46 E10       30.14F
$$

ILZ033-039-045-046-055>057-062-063-231700-
EAST-CENTRAL ILLINOIS

CITY           SKY/WX    TMP DP  RH WIND       PRES   REMARKS
CHAMPAIGN      SUNNY     51  30  44 NE6       30.16S
RANTOUL*       SUNNY     50  29  44 CALM      30.17S
MATTOON        SUNNY     50  30  46 NE7       30.14F
PARIS*         SUNNY     51  32  47 E3        30.16S
$$

ILZ079-100>102-231700-
SOUTHWEST ILLINOIS

CITY           SKY/WX    TMP DP  RH WIND       PRES   REMARKS
ALTON          MOSUNNY   55  32  41 SE12      30.14
BELLEVILLE     MOSUNNY   57  38  49 E9        30.13F
CAHOKIA*       SUNNY     58  38  47 E10       30.14R
SPARTA*        MOSUNNY   55  37  50 SE8       30.13F
$$

ILZ064>066-069>071-074>076-080>082-084>086-088>090-092>094-231700-
SOUTH-CENTRAL ILLINOIS

CITY           SKY/WX    TMP DP  RH WIND       PRES   REMARKS
CARBONDALE     PTSUNNY   58  39  49 E10       30.12S
CAIRO*         SUNNY     64  38  38 E8        30.10S
MARION         MOSUNNY   59  37  44 E9        30.14S
MT. VERNON     MOSUNNY   55  30  38 NE10      30.14F
CENTRALIA*       N/A     55  32  41 CALM      30.13F
SALEM*         MOSUNNY   56  35  45 E6        30.14F
METROPOLIS*    SUNNY     60  32  34 E6        30.10S
$$

ILZ067-068-072-073-078-083-087-091-231700-
SOUTHEAST ILLINOIS

CITY           SKY/WX    TMP DP  RH WIND       PRES   REMARKS
FLORA*         SUNNY     53  32  46 NE9       30.15F
FAIRFIELD*     SUNNY     55  36  47 NE5       30.14F
HARRISBURG*    SUNNY     57  35  44 E9        30.15S
ROBINSON*      SUNNY     54  31  42 NW6       30.16F
CARMI*         SUNNY     57  36  44 NE6       30.13F
$$

ABBREVIATIONS USED IN REMARKS
   TC - TEMPERATURE IN CELSIUS
  WCI - WIND CHILL INDEX
   HX - HEAT INDEX
  VSB - VISIBILITY
$$




USA.gov is the U.S. government's official web portal to all federal, state and local government web resources and services.